Flag for U.S.A. Weather past 2 weeks in Naples, Florida, U.S.A.

Now
73 °F

Overcast.


Feels Like: 70 °F
Forecast: 73 / 82 °F
Wind: No wind

Location: Naples Municipal

Current Time: Oct 22, 2014 at 8:37:39 AM

Latest Report: Oct 22, 2014 at 7:53 AM


Visibility: 10 mi

Pressure: 29.94 "Hg

Humidity: 94%

Dew point: 71 °F

Location of NaplesLocation

Historic Weather in Naples — Graph

°F

Naples temperature yesterday

Maximum temperature yesterday: 79 °F (at 11:53 AM)
Minimum temperature yesterday: 74 °F (at 7:53 AM)
Average temperature yesterday: 76 °F

Past Weeks' High & Low Weather Summary

 TemperatureHumidityPressure
High91 °F (Oct 11, 2:53 PM)96% (Oct 15, 5:53 AM)30.11 "Hg (Oct 15, 5:53 AM)
Low63 °F (Oct 18, 6:53 AM)39% (Oct 9, 3:53 PM)29.89 "Hg (Oct 21, 3:53 PM)
Average78 °F75%29.98 "Hg
* Reported Oct 7 6:53 AM — Oct 22 6:53 AM, Naples, Weather by CustomWeather, © 2014

Note: Actual official high and low records may vary slightly from our data, if they occured in-between our weather recording intervals... More about our weather records

Advertising

Naples weather history for previous 24 hours

 ConditionsComfort  
Time TempWeatherWind HumidityBarometerVisibility
6:53 AM
Oct 22
73 °FPassing clouds.3 mph94%29.93 "Hg10 mi
5:53 AM73 °FClear.3 mph94%29.91 "Hg10 mi
4:53 AM73 °FClear.No wind94%29.91 "Hg10 mi
3:53 AM73 °FClear.3 mph94%29.90 "Hg10 mi
2:53 AM73 °FClear.3 mph94%29.90 "Hg10 mi
1:53 AM74 °FClear.No wind94%29.92 "Hg10 mi
12:53 AM74 °FClear.3 mph94%29.93 "Hg10 mi
11:53 PM
Oct 21
75 °FClear.5 mph90%29.95 "Hg10 mi
10:53 PM75 °FClear.6 mph90%29.96 "Hg10 mi
9:53 PM75 °FClear.6 mph88%29.95 "Hg10 mi
8:53 PM75 °FClear.5 mph88%29.94 "Hg10 mi
7:53 PM76 °FPassing clouds.6 mph82%29.93 "Hg10 mi
6:53 PM77 °FSunny.5 mph79%29.92 "Hg10 mi
5:53 PM77 °FSunny.7 mph77%29.89 "Hg10 mi
4:53 PM79 °FSunny.5 mph69%29.89 "Hg10 mi
3:53 PM79 °FSunny.9 mph72%29.89 "Hg10 mi
2:53 PM77 °FBroken clouds.14 mph79%29.92 "Hg10 mi
1:53 PM78 °FPartly sunny.10 mph76%29.95 "Hg10 mi
12:53 PM78 °FScattered clouds.12 mph79%29.96 "Hg10 mi
11:53 AM79 °FPartly sunny.8 mph82%29.97 "Hg10 mi
10:53 AM78 °FPassing clouds.7 mph82%29.96 "Hg10 mi
9:53 AM77 °FSunny.6 mph82%29.95 "Hg10 mi
8:53 AM75 °FOvercast.5 mph88%29.95 "Hg10 mi
Weather by CustomWeather, © 2014

See weather overviewHow to use our weather pages